STARLINK-31846, 60126

Orbit data source: Space-Track

STARLINK-31846, 60126 is a payload satellite owned by SpaceX/Seattle (US) in LEO that was launched on Mon, 24 Jun 2024 UTC via an FALCON 9 launch vehicle from the Air Force Western Test Range (AFWTR). Payload-class satellites include a variety of spacecraft equipped with specific instruments for various scientific and technological missions. These include communications satellites like Starlink; space stations such as the ISS; scientific satellites like the Hubble; Earth observation satellites from companies like Planet Labs, Umbra, and HawkEye 360; GPS; miniature CubeSats for education and research; and military/defense satellites.

Loading next visibility...
Identifier
60126, 2024-118P
Orbit
LEO
Country
Flag of USUS
Related business
Manufacturer
SpaceX/Seattle
Mission
Operational Commercial Communications
Bus & Motor
STARLINK V2M, Unknown motor
Mass
730 kg wet, ~700 kg dry
Launch date (UTC)
2024-06-24 (1 year ago)
Launch vehicle
FALCON 9
Launch site
Air Force Western Test Range (AFWTR)
Object type
Payload
Rocket body
Debris
Shape & HBR
Box + 2 Pan, 17.7 m
Radar Cross Section
33.884 m², Large (>1 m²)

Expand to show TLE details & history
Last TLE update: 7 hours ago

TLE from 7 hours ago
0 STARLINK-31846
1 60126U 24118P   25304.21514529  .00000599  00000-0  32358-4 0  9992
2 60126  53.1609 268.0859 0001266  97.7391 262.3753 15.30182679 75877
Epoch: 2025-10-31T05:09Z
TLE epoch observation values (Epoch: 2025-10-31T05:09:48.553Z)
Latitude
-0.00004°
Longitude
150.87078°
Altitude
476.282 km
Speed
7.629 km/s
True Right ascension
17h 52m 20s
True Declination
0° 00' 00"
Sunlit
Object was in daylight at epoch
Visualization orbit readout
Latitude
Unknown
Longitude
Unknown
Altitude
Unknown
Speed
Unknown
Apparent Right ascension
Unknown
Apparent Declination
Unknown
Sunlit
N/A
Visualization observer readout
Local Sidereal Time
08:10:39
Azimuth
Unknown
Elevation
Unknown
Doppler factor
Unknown
Orbital elements
Apogee altitude
476.391 km
Perigee altitude
474.655 km
Semi-major axis
6,853.66 km
Eccentricity
0.00013
Inclination
53.1609°
RAAN
268.0859°
Arg. of periapsis
97.7391°
True anomaly
262.36092°
Mean anomaly
262.3753°
Eccentric anomaly
262.36811°
Mean motion
3.82525 °/min
Orbital period
94.11 mins
BSTAR
0.000032358
Loading maneuver chart data...
Computing Atmospheric mass density...
Loading historical data...
Loading historical data...
Loading historical data...
Loading historical data...
Loading historical data...
Loading historical data...
Loading historical data...

Documentation

Showing up to 5 results
|